Skip Page Navigation
NASA JPL Caltech
NASA Logo - Jet Propulsion Laboratory + View the NASA Portal
+ Center for Near-Earth Object Studies
JPL Home Earth Solar System Stars & Galaxies Technology
JPL Solar System Dynamics
BODIES ORBITS EPHEMERIDES TOOLS PHYSICAL DATA DISCOVERY FAQ SITE MAP
JPL Small-Body Database Browser
Search: [ help ]  
100385 (1995 VP15)
Classification: Main-belt Asteroid          SPK-ID: 2100385
Ephemeris | Orbit Diagram | Orbital Elements | Mission Design | Physical Parameters | Discovery Circumstances | Close-Approach Data ]

[ show orbit diagram ]
Orbital Elements at Epoch 2459000.5 (2020-May-31.0) TDB
Reference: JPL 16 (heliocentric ecliptic J2000)
 Element Value Uncertainty (1-sigma)   Units 
e .1970671005439359 3.6855e-08  
a 2.414643808165954 1.0561e-08 au
q 1.938796954044322 9.2227e-08 au
i 3.044187378509943 4.0859e-06 deg
node 60.58952001760809 8.5549e-05 deg
peri 227.4918612369296 8.6285e-05 deg
M 302.3292738515096 1.1719e-05 deg
tp 2459220.048745220277
(2021-Jan-05.54874522)
4.5037e-05 TDB
period 1370.49684576182
3.75
8.9912e-06
2.462e-08
d
yr
n .2626784593582092 1.7233e-09 deg/d
Q 2.890490662287587 1.2642e-08 au
  Orbit Determination Parameters
   # obs. used (total)      409  
   data-arc span      10422 days (28.53 yr)  
   first obs. used      1991-10-13  
   last obs. used      2020-04-25  
   planetary ephem.      DE431  
   SB-pert. ephem.      SB431-N16  
   condition code      0  
   norm. resid. RMS      .53577  
   source      ORB  
   producer      Otto Matic  
   solution date      2020-May-20 17:52:31  

Additional Information
 Earth MOID = .924042 au 
 Jupiter MOID = 2.28285 au 
 T_jup = 3.489 
[ show covariance matrix ]

Ephemeris | Orbit Diagram | Orbital Elements | Mission Design | Physical Parameters | Discovery Circumstances | Close-Approach Data ]

Physical Parameter Table
Parameter Symbol Value Units Sigma Reference Notes
absolute magnitude H 16.6   n/a MPO320183  

100385 (1995 VP15)          Discovered 1995-Nov-15 by Spacewatch at Kitt Peak
Reference: 20051019/Numbers.arcLast Updated: 2005-10-26

[ show close-approach data ]
Alternate Designations
 1995 VP15 = 2002 RT53 
Ephemeris | Orbit Diagram | Orbital Elements | Mission Design | Physical Parameters | Discovery Circumstances | Close-Approach Data ]
ABOUT SSD CREDITS/AWARDS PRIVACY/COPYRIGHT GLOSSARY LINKS
FirstGov 2020-Oct-24 04:19 UT
(server date/time)  
NASA Home Page
Site Manager:   Ryan S. Park
Webmaster  Alan B. Chamberlin